EN

Hourly Weather Otepa

Today, 16 May, Sunday

Time Temperature Precipitation Wind Pressure Humidity
00:00 +9°C° 0 mm 2 mps 742 mmHg 96%
01:00 +9°C° 0 mm 2 mps 742 mmHg 97%
02:00 +8°C° 0 mm 2 mps 743 mmHg 98%
03:00 +8°C° 0 mm 2 mps 743 mmHg 97%
04:00 +9°C° 0 mm 1 mps 743 mmHg 96%
05:00 +9°C° 0 mm 1 mps 743 mmHg 96%
06:00 +10°C° 0 mm 1 mps 744 mmHg 90%
07:00 +12°C° 0 mm 1 mps 744 mmHg 83%
08:00 +14°C° 0 mm 1 mps 744 mmHg 77%
09:00 +15°C° 0 mm 1 mps 745 mmHg 68%
10:00 +18°C° 0 mm 1 mps 745 mmHg 59%
11:00 +20°C° 0 mm 1 mps 745 mmHg 50%
12:00 +20°C° 0 mm 1 mps 745 mmHg 50%
13:00 +20°C° 0 mm 1 mps 745 mmHg 49%
14:00 +21°C° 0 mm 1 mps 745 mmHg 49%
15:00 +20°C° 0 mm 1 mps 745 mmHg 53%
16:00 +20°C° 0 mm 1 mps 745 mmHg 57%
17:00 +19°C° 0 mm 1 mps 745 mmHg 61%
18:00 +18°C° 0 mm 1 mps 745 mmHg 67%
19:00 +16°C° 0 mm 1 mps 745 mmHg 74%
20:00 +14°C° 0 mm 2 mps 745 mmHg 81%
21:00 +14°C° 0 mm 2 mps 745 mmHg 84%
22:00 +13°C° 0 mm 2 mps 745 mmHg 87%
23:00 +12°C° 0 mm 2 mps 745 mmHg 90%

Tomorrow, 17 May, Monday

Time Temperature Precipitation Wind Pressure Humidity
00:00 +12°C° 0 mm 2 mps 744 mmHg 92%
01:00 +10°C° 0 mm 2 mps 744 mmHg 94%
02:00 +10°C° 0 mm 2 mps 744 mmHg 95%
03:00 +10°C° 0 mm 2 mps 744 mmHg 94%
04:00 +11°C° 0 mm 3 mps 744 mmHg 93%
05:00 +11°C° 0 mm 3 mps 744 mmHg 92%
06:00 +13°C° 0 mm 4 mps 743 mmHg 84%
07:00 +15°C° 0 mm 4 mps 743 mmHg 76%
08:00 +17°C° 0 mm 5 mps 743 mmHg 69%
09:00 +17°C° 0.1 mm 5 mps 743 mmHg 68%
10:00 +19°C° 0.1 mm 5 mps 743 mmHg 68%
11:00 +19°C° 0.1 mm 5 mps 743 mmHg 68%
12:00 +19°C° 0.8 mm 5 mps 743 mmHg 74%
13:00 +17°C° 0.8 mm 5 mps 743 mmHg 80%
14:00 +16°C° 0.8 mm 5 mps 742 mmHg 86%
15:00 +15°C° 1.1 mm 4 mps 742 mmHg 89%
16:00 +14°C° 1.1 mm 3 mps 743 mmHg 92%
17:00 +14°C° 1.1 mm 2 mps 743 mmHg 95%
18:00 +14°C° 0.2 mm 2 mps 743 mmHg 95%
19:00 +13°C° 0.2 mm 1 mps 743 mmHg 96%
20:00 +13°C° 0.2 mm 1 mps 743 mmHg 96%
21:00 +12°C° 0 mm 1 mps 743 mmHg 97%
22:00 +11°C° 0 mm 1 mps 743 mmHg 97%
23:00 +11°C° 0 mm 1 mps 742 mmHg 97%

Day after tomorrow, 18 May, Tuesday

Time Temperature Precipitation Wind Pressure Humidity
00:00 +11°C° 0 mm 1 mps 742 mmHg 97%
01:00 +10°C° 0 mm 1 mps 742 mmHg 97%
02:00 +9°C° 0 mm 2 mps 742 mmHg 98%
03:00 +10°C° 0 mm 2 mps 741 mmHg 98%
04:00 +10°C° 0 mm 2 mps 741 mmHg 98%
05:00 +10°C° 0 mm 2 mps 741 mmHg 98%
06:00 +12°C° 0.2 mm 2 mps 740 mmHg 98%
07:00 +11°C° 0.2 mm 3 mps 739 mmHg 97%
08:00 +12°C° 0.2 mm 3 mps 739 mmHg 97%
09:00 +12°C° 1 mm 3 mps 738 mmHg 97%
10:00 +12°C° 1 mm 4 mps 737 mmHg 97%
11:00 +12°C° 1 mm 4 mps 737 mmHg 98%
12:00 +12°C° 0.8 mm 3 mps 736 mmHg 97%
13:00 +13°C° 0.8 mm 3 mps 736 mmHg 97%
14:00 +13°C° 0.8 mm 3 mps 736 mmHg 97%
15:00 +12°C° 0.2 mm 3 mps 736 mmHg 97%
16:00 +13°C° 0.2 mm 2 mps 736 mmHg 97%
17:00 +12°C° 0.2 mm 2 mps 736 mmHg 97%
18:00 +12°C° 0 mm 2 mps 736 mmHg 96%
19:00 +12°C° 0 mm 2 mps 736 mmHg 96%
20:00 +11°C° 0 mm 3 mps 736 mmHg 96%
21:00 +10°C° 0 mm 3 mps 736 mmHg 96%
22:00 +10°C° 0 mm 3 mps 736 mmHg 97%
23:00 +10°C° 0 mm 3 mps 736 mmHg 97%

19 May, Wednesday

Time Temperature Precipitation Wind Pressure Humidity
00:00 +9°C° 0 mm 3 mps 736 mmHg 97%
01:00 +9°C° 0 mm 3 mps 736 mmHg 97%
02:00 +9°C° 0 mm 3 mps 736 mmHg 97%
03:00 +9°C° 0 mm 3 mps 736 mmHg 97%
04:00 +9°C° 0 mm 3 mps 736 mmHg 96%
05:00 +9°C° 0 mm 3 mps 736 mmHg 96%
06:00 +9°C° 0 mm 3 mps 736 mmHg 93%
07:00 +9°C° 0 mm 3 mps 737 mmHg 91%
08:00 +9°C° 0 mm 3 mps 737 mmHg 89%
09:00 +11°C° 0 mm 3 mps 737 mmHg 81%
10:00 +12°C° 0 mm 3 mps 737 mmHg 74%
11:00 +14°C° 0 mm 4 mps 737 mmHg 66%
12:00 +15°C° 0 mm 4 mps 737 mmHg 61%
13:00 +15°C° 0 mm 4 mps 737 mmHg 56%
14:00 +17°C° 0 mm 4 mps 737 mmHg 52%
15:00 +15°C° 0 mm 4 mps 737 mmHg 57%
16:00 +14°C° 0 mm 4 mps 738 mmHg 61%
17:00 +14°C° 0 mm 4 mps 738 mmHg 66%
18:00 +13°C° 0 mm 4 mps 738 mmHg 71%
19:00 +11°C° 0 mm 4 mps 738 mmHg 75%
20:00 +10°C° 0 mm 4 mps 738 mmHg 80%
21:00 +10°C° 0 mm 4 mps 738 mmHg 81%
22:00 +9°C° 0 mm 3 mps 738 mmHg 83%
23:00 +9°C° 0 mm 3 mps 738 mmHg 85%

20 May, Thursday

Time Temperature Precipitation Wind Pressure Humidity
00:00 +7°C° 0 mm 4 mps 738 mmHg 86%
01:00 +7°C° 0 mm 4 mps 739 mmHg 88%
02:00 +7°C° 0 mm 4 mps 739 mmHg 89%
03:00 +7°C° 0.1 mm 4 mps 739 mmHg 90%
04:00 +7°C° 0.1 mm 5 mps 739 mmHg 92%
05:00 +7°C° 0.1 mm 5 mps 739 mmHg 93%
06:00 +8°C° 0 mm 5 mps 739 mmHg 88%
07:00 +9°C° 0 mm 5 mps 740 mmHg 83%
08:00 +9°C° 0 mm 5 mps 740 mmHg 78%
09:00 +11°C° 0 mm 6 mps 740 mmHg 70%
10:00 +13°C° 0 mm 6 mps 741 mmHg 61%
11:00 +14°C° 0 mm 7 mps 741 mmHg 53%
12:00 +14°C° 0.1 mm 6 mps 741 mmHg 54%
13:00 +14°C° 0.1 mm 6 mps 741 mmHg 55%
14:00 +14°C° 0.1 mm 6 mps 742 mmHg 57%
15:00 +14°C° 0.2 mm 6 mps 742 mmHg 60%
16:00 +13°C° 0.2 mm 5 mps 742 mmHg 63%
17:00 +13°C° 0.2 mm 5 mps 742 mmHg 66%
18:00 +11°C° 0.1 mm 4 mps 742 mmHg 70%
19:00 +10°C° 0.1 mm 4 mps 742 mmHg 74%
20:00 +9°C° 0.1 mm 3 mps 742 mmHg 78%
21:00 +8°C° 0 mm 3 mps 743 mmHg 83%
22:00 +7°C° 0 mm 3 mps 743 mmHg 88%
23:00 +5°C° 0 mm 4 mps 743 mmHg 92%

21 May, Friday

Time Temperature Precipitation Wind Pressure Humidity
00:00 +5°C° 0 mm 4 mps 743 mmHg 91%
01:00 +5°C° 0 mm 4 mps 743 mmHg 90%
02:00 +5°C° 0 mm 4 mps 743 mmHg 89%
03:00 +5°C° 0.1 mm 5 mps 743 mmHg 89%
04:00 +5°C° 0.1 mm 5 mps 742 mmHg 89%
05:00 +6°C° 0.1 mm 5 mps 742 mmHg 88%
06:00 +6°C° 0.1 mm 5 mps 742 mmHg 87%
07:00 +7°C° 0.1 mm 5 mps 743 mmHg 85%
08:00 +8°C° 0.1 mm 5 mps 743 mmHg 84%
09:00 +9°C° 0.1 mm 5 mps 743 mmHg 73%
10:00 +12°C° 0.1 mm 5 mps 743 mmHg 62%
11:00 +13°C° 0.1 mm 5 mps 743 mmHg 52%
12:00 +13°C° 0 mm 4 mps 743 mmHg 52%
13:00 +13°C° 0 mm 4 mps 743 mmHg 51%
14:00 +14°C° 0 mm 3 mps 743 mmHg 51%
15:00 +13°C° 0.1 mm 3 mps 742 mmHg 57%
16:00 +13°C° 0.1 mm 4 mps 742 mmHg 64%
17:00 +12°C° 0.1 mm 4 mps 742 mmHg 70%
18:00 +11°C° 0.1 mm 3 mps 742 mmHg 76%
19:00 +11°C° 0.1 mm 3 mps 741 mmHg 83%
20:00 +10°C° 0.1 mm 2 mps 741 mmHg 89%
21:00 +9°C° 0 mm 2 mps 741 mmHg 91%
22:00 +10°C° 0 mm 1 mps 741 mmHg 94%
23:00 +10°C° 0 mm 1 mps 741 mmHg 96%
Show more

We Need Your Consent

Meteoprog and our Service Providers may store and access personal data such as cookies, device identifiers or other similar technologies on your device and process such data to personalise content and ads, as well as provide social media features and to analyse the traffic.

  • Store and/or access information on your device

    Cookies, device identifiers or other information can be stored or accessed on your device for the purposes indicated above.

  • Personalised ads and content, ad and content measurement, audience insights, and products development

    Ads and content can be personalised based on a profile. More data can be added to better personalise ads and content. Ad and content performance can be measured. Insights about the audience who saw the ads and content can be derived. Such data can be used to develop or improve user’s experience, systems and software.

By clicking ‘I Agree’ you will allow the use of indicated cookies, device identifiers, web beacons or other similar technologies. Your settings can be changed in the browser on your device.

For certain purposes, legitimate interests may be relied on, rather than consent. You can read more about this in our Privacy and Cookie Policy.